Content
SEND FEEDBACK

Daily
Averages
Monthly
Summary
United States of America

NEWBURYPORT, MASSACHUSETTS


Home > North America > United States > Massachusetts
Elevation: 10 feet     Latitude: 42 50N     Longitude: 070 55W

WEATHER
 
SELECT A DAY
Number of Records: 205,220;   Date Range: 1/1/95 - 12/17/14
 
SHARE

PRINT THIS DATA

[ ← Previous Day ]
WEATHER ALMANAC - FEBRUARY 13, 2013
[ Next Day → ]
[ °C ]   °F
Weather ElementAverageHighLow
Temperature35.1 °F42.1 °F (2:54 pm)28.9 °F (6:54 am)
Dewpoint21.7 °F24.1 °F (1:54 am)19.9 °F (6:54 am)
Humidity59.3 %76 % (9:54 pm)41 % (3:54 pm)
Barometer29.81 in29.87 in (6:54 am)29.73 in (11:54 pm)
Wind Speed4.5 mph11.5 mph (9:54 am)
Weather ElementAverage
Visibility10 mi
Wind DirectionS (183.9 °)

Weather ElementTotal
Precipitation---
Heating Degree Days29.5 (Base 65)
Averaged from 23 records on February 13, 2013
WEATHER CONDITIONS BREAKOUT
WIND DIRECTION BREAKOUT
WEATHER BY HOUR - FEBRUARY 13, 2013
[ °C ]   °F
Local TimeTemperatureDewpointHumidityBarometerVisibilityWind DirectionWind SpeedGust SpeedPrecipitationEventsConditions
1:54 AM36.0 °F24.1 °F62 %29.82 in10.0 miWest (270°)8.1 mphScattered Clouds
2:54 AM34.0 °F23.0 °F64 %29.82 in10.0 miWSW (250°)8.1 mphPartly Cloudy
3:54 AM33.1 °F21.9 °F64 %29.84 in10.0 miSW (230°)8.1 mphClear
4:54 AM32.0 °F21.0 °F64 %29.86 in10.0 miSW (230°)8.1 mphClear
5:54 AM30.0 °F21.0 °F69 %29.86 in10.0 miSW (220°)4.6 mphClear
6:54 AM28.9 °F19.9 °F69 %29.87 in10.0 miSW (230°)4.6 mphClear
7:54 AM30.0 °F21.0 °F69 %29.87 in10.0 miCalmClear
8:54 AM34.0 °F21.9 °F61 %29.87 in10.0 miWSW (250°)4.6 mphClear
9:54 AM37.0 °F21.0 °F52 %29.86 in10.0 miNW (310°)11.5 mphClear
10:54 AM39.0 °F21.0 °F49 %29.84 in10.0 miWNW (300°)9.2 mphClear
11:54 AM39.9 °F21.0 °F47 %29.82 in10.0 miWNW (300°)4.6 mphScattered Clouds
12:54 PM39.9 °F21.0 °F47 %29.82 in10.0 miNW (320°)4.6 mphOvercast
1:54 PM41.0 °F21.0 °F45 %29.81 in10.0 miWest (280°)6.9 mphMostly Cloudy
2:54 PM42.1 °F21.0 °F43 %29.79 in10.0 miWest (270°)8.1 mphMostly Cloudy
3:54 PM42.1 °F19.9 °F41 %29.77 in10.0 miNW (320°)3.5 mphPartly Cloudy
4:54 PM41.0 °F19.9 °F43 %29.77 in10.0 miCalmPartly Cloudy
5:54 PM35.1 °F21.9 °F59 %29.77 in10.0 miCalmClear
6:54 PM34.0 °F21.9 °F61 %29.77 in10.0 miCalmClear
7:54 PM33.1 °F23.0 °F66 %29.77 in10.0 miEast (100°)3.5 mphClear
8:54 PM30.0 °F23.0 °F75 %29.77 in10.0 miCalmClear
9:54 PM30.9 °F24.1 °F76 %29.76 in10.0 miCalmMostly Cloudy
10:54 PM32.0 °F24.1 °F73 %29.74 in10.0 miCalm0.00 inOvercast
11:54 PM33.1 °F21.9 °F64 %29.73 in10.0 miNorth (350°)5.8 mphOvercast
Hourly data recorded from KLWM, located miles away from Newburyport, Massachusetts







STORIES FROM OUR PARTNERS